Hourly Data Report for October 31, 2013

All times are specified in Local Standard Time (LST). Add 1 hour to adjust for Daylight Saving Time where and when it is observed.

SAINT JOHN A
NEW BRUNSWICK

45°18'58.000" N
65°53'24.000" W
108.80 m
8104901
71609
YSJ

Download Data

Hourly Data (October 2013)
Hourly Data Report for October 31, 2013
Temp Definition
°C
Dew Point Temp Definition
°C
Rel Hum Definition
%
Wind Dir Definition
10's deg

Wind Spd Definition
km/h
Visibility Definition
km
Stn Press Definition
kPa
Hmdx Definition


Wind Chill Definition


Weather Definition


TIME
00:00 Legend Double Dagger -5.6 -6.4 94 1 3 24.1 100.87   -7 LegendNANA
01:00 Legend Double Dagger -5.6 -6.4 94 20 1 24.1 100.90   -6 LegendNANA
02:00 Legend Double Dagger -6.2 -7.0 94 3 3 24.1 100.95   -8 Clear
03:00 Legend Double Dagger -5.3 -6.3 93 11 2 24.1 100.97   -6 LegendNANA
04:00 Legend Double Dagger -6.6 -7.4 94 10 2 24.1 100.96   -8 LegendNANA
05:00 Legend Double Dagger -6.9 -7.7 94 18 2 24.1 100.99   -8 Mainly Clear
06:00 Legend Double Dagger -6.9 -8.1 91 13 1 24.1 101.02   -7 LegendNANA
07:00 Legend Double Dagger -6.7 -7.2 96 1 4 24.1 101.01   -9 LegendNANA
08:00 Legend Double Dagger -5.6 -6.6 93 28 1 24.1 101.07   -6 Mainly Clear
09:00 Legend Double Dagger 0.2 -2.2 84 12 1 24.1 101.09     LegendNANA
10:00 Legend Double Dagger 3.9 -2.7 62 27 3 24.1 101.07     LegendNANA
11:00 Legend Double Dagger 5.5 -4.4 49 21 18 24.1 101.06     Mostly Cloudy
12:00 Legend Double Dagger 6.6 -1.3 57 21 19 24.1 100.99     LegendNANA
13:00 Legend Double Dagger 6.6 -2.3 53 21 24 24.1 100.90     LegendNANA
14:00 Legend Double Dagger 6.6 -0.8 59 22 25 24.1 100.79     Cloudy
15:00 Legend Double Dagger 7.2 1.3 66 22 18 24.1 100.76     LegendNANA
16:00 Legend Double Dagger 7.7 2.8 71 21 23 24.1 100.69     LegendNANA
17:00 Legend Double Dagger 7.8 3.9 76 19 23 24.1 100.57     Cloudy
18:00 Legend Double Dagger 8.2 5.0 80 19 15 24.1 100.49     LegendNANA
19:00 Legend Double Dagger 7.8 6.3 90 17 19 12.9 100.40     Rain
20:00 Legend Double Dagger 8.1 7.5 96 17 22 12.9 100.31     Rain
21:00 Legend Double Dagger 8.8 8.5 98 17 26 4.8 100.12     Rain,Fog
22:00 Legend Double Dagger 10.1 9.8 98 18 27 4.0 99.96     Rain,Fog
23:00 Legend Double Dagger 12.0 11.7 98 21 30 4.0 99.85     Rain,Fog

Notes on Data Quality.

Legend

  • E = Estimated
  • M = Missing
  • NA = Not Available
  • ‡ = Partner data that is not subject to review by the National Climate Archives
Date modified: